Regional Weather Roundup
Issued by NWS Green Bay, WI

Home | Current Version | Previous Version | Text Only | Print | Product List | Glossary On
Versions: 1 2 3 4 5 6 7 8 9 10 11 12 13 14 15 16 17 18 19 20 21 22 23 24 25 26 27 28 29 30 31 32 33 34 35 36 37 38 39 40 41 42 43 44 45 46 47 48 49 50
000
ASUS43 KGRB 012011
RWRGRB

NORTH-CENTRAL AND NORTHEAST WISCONSIN REGIONAL WEATHER ROUNDUP
NATIONAL WEATHER SERVICE GREEN BAY WI
300 PM CDT SUN MAY 01 2016

WIZ005-009-010>012-018-019-012100-
NORTH CENTRAL WISCONSIN

CITY           SKY/WX    TMP DP  RH WIND       PRES   REMARKS
IRONWOOD         N/A     48  36  61 N12G17    30.14S
MANITOWISH WTR CLOUDY    57  32  38 NE8G16    30.11F
ARBOR VITAE    CLOUDY    59  30  32 NE5       30.09F
EAGLE RIVER    CLOUDY    59  25  27 E9        30.09F
LAND O LAKES   CLOUDY    60  30  32 NE9       30.11F
RHINELANDER    CLOUDY    60  28  29 VRB7      30.08F
PHILLIPS       MOSUNNY   59  32  35 E9        30.09S
ANTIGO         CLOUDY    60  32  35 E8        30.07F
TOMAHAWK       PTSUNNY   62  28  27 E8G16     30.07F
MERRILL        PTSUNNY   61  30  30 E14       30.07S
$$

WIZ013-073-012100-
NORTHEAST WISCONSIN

CITY           SKY/WX    TMP DP  RH WIND       PRES   REMARKS
IRON MOUNTAIN  MOSUNNY   61  27  27 VRB6G17   30.08F
MARINETTE      SUNNY     54  34  47 E15       30.12S
OCONTO         SUNNY     56  37  49 NE12      30.11S
$$

WIZ017-030-035>037-045-012100-
CENTRAL WISCONSIN

CITY           SKY/WX    TMP DP  RH WIND       PRES   REMARKS
MEDFORD        CLOUDY    59  32  36 NE10      30.06F
WAUSAU         CLOUDY    62  30  29 E12       30.04F
MOSINEE        MOSUNNY   61  30  31 E10G17    30.07F
MARSHFIELD     CLOUDY    58  29  33 E14       30.06F
WISC RAPIDS    CLOUDY    59  29  31 E12G21    30.08F
STEVENS POINT  CLOUDY    56  30  37 E12       30.07F
WAUPACA        CLOUDY    60  30  31 NE15G23   30.08F
SHAWANO        SUNNY     59  35  39 E12       30.09F
CLINTONVILLE   MOSUNNY   57  32  38 E9G18     30.08F
WAUTOMA        CLOUDY    58  34  40 E18G25    30.06R
$$

WIZ038-039-048-051-012100-
FOX VALLEY

CITY           SKY/WX    TMP DP  RH WIND       PRES   REMARKS
NWS GREEN BAY  PTSUNNY   57  41  55 NE18      30.09S
APPLETON       PTSUNNY   55  36  47 NE15G21   30.06S
OSHKOSH        MOSUNNY   57  42  57 NE13G22   30.05F
FOND DU LAC    MOSUNNY   59  40  49 E23       30.04F
$$

WIZ022-050-052-012100-
EAST CENTRAL WISCONSIN

CITY           SKY/WX    TMP DP  RH WIND       PRES   REMARKS
EPHRAIM        FAIR      54  36  49 E12       30.11S
STURGEON BAY   SUNNY     54  36  50 NE15G22   30.13F
MANITOWOC      SUNNY     53  38  56 MISG      30.07F
SHEBOYGAN      SUNNY     53  40  61 NE24G32   30.05F
$$

LMZ563-521-522-541>543-012100-
LAKESHORE

STATION/POSITION TIME  TEMP    WIND        PRES    VSBY  WAVE
                       AIR SEA DIR/SP/G                  HT/PER
                 (UTC) (F)     (DEG/KT/KT) (MB)    (MI)  (FT/S)
SHEBOYGAN LKSHOR 2000   44      20/ 20/ 22 1018.3F
KEWAUNEE LKSHORE 1900   47      30/ 11/ 15 1018.5R
NORTHPORT PIER   1900   44      70/ 10/ 11 1020.3S
N MID LAKE BUOY  1950   41 39   10/  8/  8 1020.1F         1
CHAMBERS ISLAND  1900   45      20/ 11/ 12 1020.3S
MENOMINEE LKSHOR 1900   44      30/ 11/ 13 1019.0R
$$



USA.gov is the U.S. government's official web portal to all federal, state and local government web resources and services.